Home > Weather > Cocoa Beach > Past weeks

Flag for U.S.A. Weather for the Past 2 Weeks in Cocoa Beach, Florida, U.S.A.

Now
59 °F

Passing clouds.


Feels Like: 57 °F
Forecast: 59 / 69 °F
Wind: 14 mph from North

Location: Cocoa / Patrick Air Force Base

Current Time: Feb 5, 2016 at 8:19:17 PM

Latest Report: Feb 5, 2016 at 6:58 PM


Visibility: 10 mi

Pressure: 30.22 "Hg

Humidity: 69%

Dew point: 49 °F

Location of Cocoa BeachLocation

Historic Weather in Cocoa Beach — Graph

°F

Cocoa Beach Temperature Yesterday

Maximum temperature yesterday: 83 °F (at 12:58 PM)
Minimum temperature yesterday: 70 °F (at 4:58 AM)
Average temperature yesterday: 74 °F

High & Low Weather Summary for the Past Weeks

 TemperatureHumidityPressure
High83 °F (Feb 4, 12:58 PM)100% (Jan 27, 8:58 AM)30.32 "Hg (Jan 27, 8:58 AM)
Low37 °F (Jan 24, 6:58 AM)35% (Jan 29, 3:58 PM)29.69 "Hg (Jan 22, 3:58 PM)
Average62 °F82%30.05 "Hg
* Reported Jan 21 6:58 PM — Feb 5 6:58 PM, Cocoa Beach, Weather by CustomWeather, © 2016

Note: Actual official high and low records may vary slightly from our data, if they occured in-between our weather recording intervals... More about our weather records

Advertising

Cocoa Beach Weather History for the Previous 24 Hours

 ConditionsComfort  
Time TempWeatherWind HumidityBarometerVisibility
6:58 PM
Fri, Feb 5
59 °FPassing clouds.14 mph69%30.22 "Hg10 mi
5:58 PM60 °FPartly sunny.18 mph63%30.22 "Hg10 mi
4:58 PM60 °FPassing clouds.17 mph60%30.22 "Hg10 mi
3:58 PM60 °FScattered clouds.17 mph60%30.21 "Hg10 mi
2:58 PM60 °FPartly sunny.20 mph62%30.21 "Hg10 mi
1:58 PM59 °FPartly sunny.17 mph61%30.21 "Hg10 mi
12:58 PM59 °FSunny.18 mph57%30.23 "Hg10 mi
11:58 AM58 °FSunny.21 mph51%30.25 "Hg10 mi
10:58 AM57 °FSunny.20 mph54%30.27 "Hg10 mi
9:58 AM54 °FSunny.18 mph53%30.27 "Hg10 mi
8:58 AM51 °FSunny.15 mph57%30.27 "Hg10 mi
7:58 AM51 °FSunny.20 mph56%30.25 "Hg10 mi
6:58 AM52 °FClear.22 mph67%30.21 "Hg10 mi
5:58 AM53 °FClear.16 mph68%30.19 "Hg10 mi
4:58 AM54 °FClear.22 mph69%30.15 "Hg10 mi
3:58 AM55 °FOvercast.26 mph73%30.13 "Hg10 mi
2:58 AM56 °FOvercast.23 mph73%30.12 "Hg10 mi
1:58 AM56 °FOvercast.20 mph78%30.13 "Hg10 mi
1:03 AM55 °FLight rain. Overcast.24 mph77%30.09 "Hg10 mi
12:00 AM63 °FPassing clouds.16 mph100%30.06 "Hg10 mi
11:03 PM
Thu, Feb 4
70 °FLight rain. Passing clouds.14 mph94%30.06 "Hg10 mi
10:58 PM70 °FRain. Passing clouds.16 mph97%30.06 "Hg10 mi
10:03 PM73 °FHeavy rain. Fog.17 mph94%30.03 "Hg2 mi
9:58 PM74 °FLight rain. Fog.10 mph89%30.03 "Hg5 mi
8:58 PM75 °FClear.9 mph81%30.01 "Hg10 mi
Weather by CustomWeather, © 2016

See weather overviewHow to use our weather pages